Location: Unspecified
(43.8044°N, 11.0278°E)
Time: 12:02:49
(UTC+01:00)

CZ-3 Stage 3 - Visible Passes

Search period start: 06 March 2015 00:00
Search period end: 16 March 2015 00:00
Orbit: 430 x 34800 km, 31.0° (Epoch: 03 March)

Date Brightness Start Highest point End Pass type
(mag) Time Alt. Az. Time Alt. Az. Time Alt. Az.
07 Mar 7.1 14:57:18 10° SW 23:46:24 39° WSW 23:54:08 35° SW visible
08 Mar 7.1 11:17:45 10° S 19:17:03 73° S 20:27:23 26° ESE visible
10 Mar 7.1 14:52:26 10° SW 23:40:58 37° WSW 23:50:15 33° SW visible
11 Mar 7.0 11:11:56 10° S 19:14:15 73° S 20:23:29 24° SE visible
13 Mar 7.1 14:47:34 10° SW 23:35:28 36° WSW 23:46:19 30° SW visible
14 Mar 7.0 11:06:11 10° S 19:11:13 72° SSW 20:19:32 22° SE visible
